DW0251 Weather Reports


time (UTC)temp
F
wind
direction
speed
knots
gust
knots
rain 1hr
in
rain 24hr
in
rain mn
in
humidity
%
barometer
mb
20260504050701 55 132 0.0 0.0 0.00 0.00 0.00 70 1009.6
20260504050501 55 132 0.0 0.0 0.00 0.00 0.00 70 1009.6
20260504050404 55 132 0.0 0.0 0.00 0.00 0.00 70 1009.6
20260504050301 55 132 0.0 0.0 0.00 0.00 0.00 69 1009.5
20260504050200 55 132 0.0 0.0 0.00 0.00 0.00 69 1009.6
20260504050006 55 132 0.0 0.0 0.00 0.00 0.00 69 1009.5
20260504045901 55 132 0.0 0.0 0.00 0.00 0.00 69 1009.6
20260504045801 55 132 0.0 0.0 0.00 0.00 0.00 69 1009.6
20260504045703 55 134 0.0 0.0 0.00 0.00 0.00 69 1009.6
20260504045601 55 134 0.0 0.0 0.00 0.00 0.00 69 1009.6
20260504045501 55 134 0.0 0.0 0.00 0.00 0.00 69 1009.6
20260504045401 55 134 0.0 0.0 0.00 0.00 0.00 69 1009.6
20260504045100 55 134 0.0 0.0 0.00 0.00 0.00 69 1009.6
20260504045000 55 134 0.0 0.0 0.00 0.00 0.00 68 1009.6
20260504044904 55 137 0.0 0.0 0.00 0.00 0.00 68 1009.7
20260504044800 55 138 0.0 2.6 0.00 0.00 0.00 68 1009.7
20260504044701 55 138 0.0 2.6 0.00 0.00 0.00 68 1009.6
20260504044601 55 138 0.0 2.6 0.00 0.00 0.00 68 1009.7
20260504044504 55 138 0.0 2.6 0.00 0.00 0.00 69 1009.7
20260504044400 55 138 0.0 2.6 0.00 0.00 0.00 69 1009.7
20260504044301 55 138 0.0 2.6 0.00 0.00 0.00 68 1009.7
20260504044201 55 138 0.0 2.6 0.00 0.00 0.00 68 1009.7
20260504044104 55 163 0.0 2.6 0.00 0.00 0.00 69 1009.7
20260504043901 55 163 0.0 2.6 0.00 0.00 0.00 68 1009.8
20260504043800 55 192 0.0 0.0 0.00 0.00 0.00 69 1009.8
20260504043501 55 192 0.0 0.0 0.00 0.00 0.00 68 1009.7
20260504043400 55 192 0.0 0.0 0.00 0.00 0.00 68 1009.7
20260504043200 55 192 0.0 0.0 0.00 0.00 0.00 68 1009.7
20260504043101 55 192 0.0 0.0 0.00 0.00 0.00 68 1009.7
20260504043002 55 192 0.0 0.0 0.00 0.00 0.00 67 1009.8
20260504042903 55 192 0.0 0.0 0.00 0.00 0.00 68 1009.8
20260504042700 55 204 0.0 0.0 0.00 0.00 0.00 68 1009.7
20260504042600 55 204 0.0 0.0 0.00 0.00 0.00 68 1009.8
20260504042502 55 206 0.0 0.0 0.00 0.00 0.00 68 1009.8
20260504042401 55 206 0.0 0.0 0.00 0.00 0.00 68 1009.7
20260504042300 56 206 0.0 0.0 0.00 0.00 0.00 68 1009.8
20260504042103 56 206 0.0 0.0 0.00 0.00 0.00 68 1009.8
20260504042001 56 206 0.0 0.0 0.00 0.00 0.00 67 1009.8
20260504041901 56 206 0.0 0.0 0.00 0.00 0.00 67 1009.8
20260504041800 56 206 0.0 0.0 0.00 0.00 0.00 67 1009.8
20260504041703 56 206 0.0 0.0 0.00 0.00 0.00 67 1009.9
20260504041601 56 206 0.0 0.0 0.00 0.00 0.00 67 1009.8
20260504041501 56 208 0.0 4.3 0.00 0.00 0.00 67 1009.9
20260504041401 56 208 0.0 4.3 0.00 0.00 0.00 67 1009.9
20260504041100 56 232 0.0 4.3 0.00 0.00 0.00 67 1009.9
20260504041001 56 232 0.0 4.3 0.00 0.00 0.00 67 1009.9
20260504040904 56 232 0.0 4.3 0.00 0.00 0.00 67 1010.0
20260504040801 56 238 0.0 4.3 0.00 0.00 0.00 67 1010.0
20260504040700 56 238 0.0 4.3 0.00 0.00 0.00 67 1010.0
20260504040401 56 150 0.0 0.0 0.00 0.00 0.00 68 1010.1
20260504040301 56 127 0.0 0.0 0.00 0.00 0.00 68 1010.1
20260504040201 56 127 0.0 4.3 0.00 0.00 0.00 67 1010.1
20260504040005 56 127 0.0 4.3 0.00 0.00 0.00 67 1010.1
20260504035901 56 127 0.0 4.3 0.00 0.00 0.00 67 1010.1
20260504035701 56 130 0.0 4.3 0.00 0.00 0.00 68 1010.2
20260504035601 56 130 0.0 4.3 0.00 0.00 0.00 68 1010.2
20260504035501 56 130 0.0 4.3 0.00 0.00 0.00 67 1010.1
20260504035403 56 130 0.0 4.3 0.00 0.00 0.00 67 1010.0
20260504035301 56 140 0.0 2.6 0.00 0.00 0.00 67 1010.0
20260504035200 56 173 0.0 0.0 0.00 0.00 0.00 67 1010.1
20260504035101 56 173 0.0 0.0 0.00 0.00 0.00 68 1010.0
20260504035003 56 173 0.0 0.0 0.00 0.00 0.00 68 1010.2
20260504034900 56 173 0.0 0.0 0.00 0.00 0.00 68 1010.1
20260504034801 56 173 0.0 1.7 0.00 0.00 0.00 68 1010.1
20260504034700 56 173 0.0 1.7 0.00 0.00 0.00 68 1010.1
20260504034501 56 173 0.0 1.7 0.00 0.00 0.00 69 1010.2
20260504034401 56 173 0.0 1.7 0.00 0.00 0.00 68 1010.1
20260504034301 56 173 0.0 1.7 0.00 0.00 0.00 68 1010.2
20260504034202 56 173 0.0 1.7 0.00 0.00 0.00 67 1010.2
20260504034101 56 173 0.0 1.7 0.00 0.00 0.00 67 1010.2
20260504034001 56 173 0.0 1.7 0.00 0.00 0.00 67 1010.2
20260504033901 56 148 0.0 0.0 0.00 0.00 0.00 67 1010.2
20260504033701 56 148 0.0 0.0 0.00 0.00 0.00 68 1010.3
20260504033601 56 148 0.0 0.0 0.00 0.00 0.00 68 1010.2
20260504033501 56 148 0.0 0.0 0.00 0.00 0.00 68 1010.2
20260504033403 56 130 0.0 0.0 0.00 0.00 0.00 68 1010.3
20260504033301 56 130 0.0 0.0 0.00 0.00 0.00 69 1010.3
20260504033201 56 130 0.0 0.0 0.00 0.00 0.00 68 1010.3
20260504033101 56 130 0.0 0.0 0.00 0.00 0.00 68 1010.3
20260504033003 56 130 0.0 0.0 0.00 0.00 0.00 68 1010.3
20260504032901 56 130 0.0 0.0 0.00 0.00 0.00 68 1010.4
20260504032800 56 130 0.0 0.0 0.00 0.00 0.00 68 1010.3
20260504032701 56 130 0.0 0.0 0.00 0.00 0.00 68 1010.3
20260504032501 56 159 0.0 0.0 0.00 0.00 0.00 68 1010.3
20260504032300 56 159 0.0 0.0 0.00 0.00 0.00 68 1010.4
20260504032203 56 159 0.0 0.0 0.00 0.00 0.00 68 1010.4
20260504032101 56 159 0.0 0.0 0.00 0.00 0.00 67 1010.4
20260504032000 56 159 0.0 0.0 0.00 0.00 0.00 67 1010.4
20260504031900 56 159 0.0 0.0 0.00 0.00 0.00 67 1010.4
20260504031802 56 159 0.0 0.0 0.00 0.00 0.00 67 1010.4
20260504031700 56 159 0.0 0.0 0.00 0.00 0.00 67 1010.4
20260504031601 56 159 0.0 0.0 0.00 0.00 0.00 67 1010.4
20260504031500 56 159 0.0 0.0 0.00 0.00 0.00 67 1010.4
20260504031403 56 159 0.0 0.0 0.00 0.00 0.00 67 1010.5
20260504031302 56 159 0.0 0.0 0.00 0.00 0.00 67 1010.5
20260504031201 56 159 0.0 0.0 0.00 0.00 0.00 66 1010.5
20260504031100 56 159 0.0 0.0 0.00 0.00 0.00 66 1010.4
20260504031004 56 159 0.0 0.0 0.00 0.00 0.00 66 1010.5
20260504030800 56 159 0.0 0.0 0.00 0.00 0.00 66 1010.5
20260504030703 56 159 0.0 0.0 0.00 0.00 0.00 66 1010.5
20260504030601 56 159 0.0 0.0 0.00 0.00 0.00 66 1010.5
20260504030500 56 159 0.0 0.0 0.00 0.00 0.00 66 1010.5
20260504030401 56 159 0.0 0.0 0.00 0.00 0.00 66 1010.5
20260504030302 56 159 0.0 0.0 0.00 0.00 0.00 66 1010.5
20260504030101 56 159 0.0 0.0 0.00 0.00 0.00 66 1010.5
20260504030003 56 159 0.0 0.0 0.00 0.00 0.00 66 1010.5
20260504025903 56 159 0.0 0.0 0.00 0.00 0.00 66 1010.5
20260504025800 56 159 0.0 0.0 0.00 0.00 0.00 65 1010.5
20260504025602 56 159 0.0 0.0 0.00 0.00 0.00 66 1010.5
20260504025503 56 159 0.0 0.0 0.00 0.00 0.00 66 1010.5
20260504025400 56 159 0.0 0.0 0.00 0.00 0.00 66 1010.5
20260504025304 57 159 0.0 0.0 0.00 0.00 0.00 66 1010.5
20260504025200 57 159 0.0 0.0 0.00 0.00 0.00 65 1010.6
20260504025103 57 159 0.0 0.0 0.00 0.00 0.00 65 1010.6
20260504024900 57 159 0.0 0.0 0.00 0.00 0.00 65 1010.5
20260504024801 57 159 0.0 0.0 0.00 0.00 0.00 65 1010.5
20260504024703 57 159 0.0 0.0 0.00 0.00 0.00 65 1010.6
20260504024601 57 159 0.0 0.0 0.00 0.00 0.00 65 1010.6
20260504024501 57 159 0.0 0.0 0.00 0.00 0.00 65 1010.6
20260504024401 57 159 0.0 0.0 0.00 0.00 0.00 65 1010.6
20260504024303 57 159 0.0 0.0 0.00 0.00 0.00 65 1010.6
20260504024200 57 159 0.0 0.0 0.00 0.00 0.00 64 1010.6
20260504024000 57 159 0.0 0.0 0.00 0.00 0.00 64 1010.6
20260504023903 57 159 0.0 0.0 0.00 0.00 0.00 64 1010.6
20260504023800 57 159 0.0 0.0 0.00 0.00 0.00 64 1010.6
20260504023701 57 159 0.0 0.0 0.00 0.00 0.00 64 1010.6
20260504023601 57 159 0.0 0.0 0.00 0.00 0.00 63 1010.6
20260504023503 57 159 0.0 0.0 0.00 0.00 0.00 64 1010.6
20260504023400 57 159 0.0 0.0 0.00 0.00 0.00 64 1010.6
20260504023301 57 159 0.0 0.0 0.00 0.00 0.00 64 1010.6
20260504023200 57 159 0.0 0.0 0.00 0.00 0.00 64 1010.5
20260504023104 57 157 0.0 0.0 0.00 0.00 0.00 63 1010.6
20260504022901 57 157 0.0 0.0 0.00 0.00 0.00 63 1010.5
20260504022800 57 157 0.0 0.0 0.00 0.00 0.00 64 1010.5
20260504022601 57 157 0.0 0.0 0.00 0.00 0.00 64 1010.4
20260504022500 57 157 0.0 0.0 0.00 0.00 0.00 63 1010.3
20260504022400 57 157 0.0 0.0 0.00 0.00 0.00 63 1010.4
20260504022305 57 157 0.0 0.0 0.00 0.00 0.00 63 1010.4
20260504022201 57 157 0.0 0.0 0.00 0.00 0.00 63 1010.4
20260504022100 57 157 0.0 0.0 0.00 0.00 0.00 63 1010.4
20260504022001 57 157 0.0 0.0 0.00 0.00 0.00 64 1010.4
20260504021906 57 157 0.0 0.0 0.00 0.00 0.00 64 1010.3
20260504021801 57 157 0.0 0.0 0.00 0.00 0.00 63 1010.4
20260504021700 57 157 0.0 0.0 0.00 0.00 0.00 64 1010.4
20260504021604 57 157 0.0 0.0 0.00 0.00 0.00 64 1010.3
20260504021501 57 157 0.0 0.0 0.00 0.00 0.00 64 1010.2
20260504021302 57 157 0.0 0.0 0.00 0.00 0.00 64 1010.2
20260504021204 57 157 0.0 0.0 0.00 0.00 0.00 64 1010.2
20260504021101 57 157 0.0 0.9 0.00 0.00 0.00 64 1010.3
20260504020901 57 157 0.0 1.7 0.00 0.00 0.00 64 1010.2
20260504020804 57 157 0.0 1.7 0.00 0.00 0.00 64 1010.3
20260504020701 57 157 0.0 1.7 0.00 0.00 0.00 63 1010.3
20260504020601 57 157 0.0 1.7 0.00 0.00 0.00 63 1010.3
20260504020501 57 157 0.0 1.7 0.00 0.00 0.00 63 1010.4
20260504020403 57 157 0.0 1.7 0.00 0.00 0.00 63 1010.3
20260504020301 58 157 0.0 5.2 0.00 0.00 0.00 63 1010.3
20260504020202 58 144 0.0 5.2 0.00 0.00 0.00 63 1010.3
20260504020100 58 144 0.0 5.2 0.00 0.00 0.00 63 1010.3
20260504015900 58 159 0.0 5.2 0.00 0.00 0.00 63 1010.2
20260504015801 58 159 0.0 5.2 0.00 0.00 0.00 63 1010.3
20260504015701 58 159 0.0 5.2 0.00 0.00 0.00 62 1010.2
20260504015604 58 159 0.0 5.2 0.00 0.00 0.00 63 1010.3
20260504015501 58 159 0.0 5.2 0.00 0.00 0.00 62 1010.3
20260504015300 58 153 0.0 0.0 0.00 0.00 0.00 62 1010.2
20260504015203 58 153 0.0 0.0 0.00 0.00 0.00 62 1010.3
20260504015101 58 153 0.0 0.9 0.00 0.00 0.00 62 1010.3
20260504015001 58 153 0.0 0.9 0.00 0.00 0.00 62 1010.3
20260504014901 58 153 0.0 0.9 0.00 0.00 0.00 62 1010.4
20260504014803 58 161 0.0 0.9 0.00 0.00 0.00 62 1010.3
20260504014700 58 111 0.0 0.9 0.00 0.00 0.00 63 1010.4
20260504014600 58 111 0.0 0.9 0.00 0.00 0.00 63 1010.3
20260504014500 58 111 0.0 0.9 0.00 0.00 0.00 62 1010.3
20260504014404 58 111 0.0 0.9 0.00 0.00 0.00 62 1010.4
20260504014300 58 111 0.0 0.9 0.00 0.00 0.00 62 1010.4
20260504014202 58 174 0.0 0.0 0.00 0.00 0.00 62 1010.4
20260504014102 58 174 0.0 0.0 0.00 0.00 0.00 62 1010.4
20260504014003 58 174 0.0 0.0 0.00 0.00 0.00 61 1010.3
20260504013700 58 174 0.0 0.0 0.00 0.00 0.00 61 1010.3
20260504013603 58 174 0.0 0.0 0.00 0.00 0.00 62 1010.3
20260504013501 59 174 0.0 0.0 0.00 0.00 0.00 62 1010.3
20260504013401 59 174 0.0 0.0 0.00 0.00 0.00 63 1010.3
20260504013301 59 174 0.0 0.0 0.00 0.00 0.00 63 1010.4
20260504013204 59 174 0.0 0.0 0.00 0.00 0.00 62 1010.3
20260504013101 59 174 0.0 0.0 0.00 0.00 0.00 62 1010.3
20260504012901 59 174 0.0 0.0 0.00 0.00 0.00 62 1010.4
20260504012803 59 174 0.0 0.0 0.00 0.00 0.00 63 1010.4
20260504012701 59 149 0.0 0.0 0.00 0.00 0.00 63 1010.4
20260504012600 59 149 0.0 0.0 0.00 0.00 0.00 63 1010.4
20260504012404 59 149 0.0 0.0 0.00 0.00 0.00 62 1010.3
20260504012300 59 149 0.0 0.0 0.00 0.00 0.00 61 1010.2
20260504012003 59 125 0.0 0.0 0.00 0.00 0.00 62 1010.4
20260504011900 59 125 0.0 0.0 0.00 0.00 0.00 63 1010.2
20260504011604 59 134 0.0 0.9 0.00 0.00 0.00 63 1010.4
20260504011401 59 134 0.0 0.9 0.00 0.00 0.00 63 1010.3
20260504011301 59 134 0.0 0.9 0.00 0.00 0.00 63 1010.3
20260504011203 59 134 0.0 0.9 0.00 0.00 0.00 63 1010.2
20260504011101 59 134 0.0 0.9 0.00 0.00 0.00 63 1010.2
20260504010900 59 134 0.0 0.9 0.00 0.00 0.00 62 1010.2
20260504010804 59 134 0.0 0.0 0.00 0.00 0.00 62 1010.2
20260504010701 59 134 0.0 0.0 0.00 0.00 0.00 62 1010.3
20260504010601 59 134 0.0 0.0 0.00 0.00 0.00 62 1010.2
20260504010501 59 134 0.0 0.0 0.00 0.00 0.00 62 1010.2
20260504010404 59 134 0.0 0.0 0.00 0.00 0.00 62 1010.2
20260504010301 59 134 0.0 0.0 0.00 0.00 0.00 62 1010.2
20260504010201 59 134 0.0 0.0 0.00 0.00 0.00 61 1010.2
20260504010101 59 134 0.0 0.0 0.00 0.00 0.00 62 1010.2
20260504010005 59 134 0.0 0.9 0.00 0.00 0.00 63 1010.2
20260504005901 59 134 0.0 0.9 0.00 0.00 0.00 63 1010.2
20260504005800 59 134 0.0 0.9 0.00 0.00 0.00 62 1010.2
20260504005700 59 134 0.0 0.9 0.00 0.00 0.00 62 1010.1
20260504005602 59 134 0.0 0.9 0.00 0.00 0.00 62 1010.2
20260504005501 59 134 0.0 0.9 0.00 0.00 0.00 61 1010.1
20260504005400 59 134 0.0 0.9 0.00 0.00 0.00 62 1010.2
20260504005301 59 134 0.0 0.9 0.00 0.00 0.00 62 1010.2
20260504005204 59 134 0.0 0.9 0.00 0.00 0.00 62 1010.1
20260504005100 59 134 0.0 0.9 0.00 0.00 0.00 62 1010.1
20260504004901 59 133 0.0 0.0 0.00 0.00 0.00 62 1010.0
20260504004803 59 133 0.0 0.0 0.00 0.00 0.00 62 1010.0
20260504004602 59 133 0.0 0.0 0.00 0.00 0.00 61 1010.0
20260504004502 59 136 0.0 0.0 0.00 0.00 0.00 62 1010.1
20260504004403 59 136 0.0 0.0 0.00 0.00 0.00 62 1010.1
20260504004300 59 142 0.0 0.9 0.00 0.00 0.00 62 1010.0
20260504004202 59 142 0.0 3.5 0.00 0.00 0.00 62 1010.0
20260504004101 59 142 0.0 3.5 0.00 0.00 0.00 61 1010.0
20260504003900 59 142 0.0 3.5 0.00 0.00 0.00 61 1010.0
20260504003801 59 142 0.0 3.5 0.00 0.00 0.00 60 1010.0
20260504003700 59 142 0.0 3.5 0.00 0.00 0.00 61 1010.0
20260504003603 59 142 0.0 3.5 0.00 0.00 0.00 62 1010.1
20260504003501 59 146 0.0 3.5 0.00 0.00 0.00 61 1010.0
20260504003401 59 323 0.0 1.7 0.00 0.00 0.00 60 1010.0
20260504003204 59 320 0.0 2.6 0.00 0.00 0.00 61 1010.0
20260504003101 59 304 0.0 2.6 0.00 0.00 0.00 61 1010.0
20260504003000 59 304 0.0 2.6 0.00 0.00 0.00 62 1010.0
20260504002900 59 304 0.0 2.6 0.00 0.00 0.00 62 1010.0
20260504002803 60 303 0.0 2.6 0.00 0.00 0.00 61 1010.0
20260504002701 60 128 0.0 2.6 0.00 0.00 0.00 61 1009.9
20260504002601 60 171 0.0 2.6 0.00 0.00 0.00 63 1010.1
20260504002404 60 171 0.0 2.6 0.00 0.00 0.00 62 1010.2
20260504002303 60 153 0.0 1.7 0.00 0.00 0.00 61 1010.2
20260504002201 60 153 0.0 4.3 0.00 0.00 0.00 62 1010.4
20260504002100 60 153 0.0 4.3 0.00 0.00 0.00 62 1010.5
20260504002004 60 153 0.0 4.3 0.00 0.00 0.00 60 1010.6
20260504001900 60 153 0.0 4.3 0.00 0.00 0.00 60 1010.6
20260504001800 60 153 0.0 4.3 0.00 0.00 0.00 61 1010.7
20260504001701 60 153 0.0 4.3 0.00 0.00 0.00 61 1010.7
20260504001501 60 147 0.0 4.3 0.00 0.00 0.00 60 1010.8
20260504001401 60 147 0.0 4.3 0.00 0.00 0.00 61 1010.9
20260504001200 60 265 0.0 0.0 0.00 0.00 0.00 62 1011.0
20260504001101 60 265 0.0 0.0 0.00 0.00 0.00 61 1011.1
20260504001001 60 265 0.0 0.0 0.00 0.00 0.00 61 1011.1
20260504000800 60 265 0.0 0.0 0.00 0.00 0.00 60 1011.1
20260504000701 60 265 0.0 0.0 0.00 0.00 0.00 60 1011.2
20260504000601 60 265 0.0 0.0 0.00 0.00 0.00 60 1011.2
20260504000506 60 265 0.0 0.0 0.00 0.00 0.00 60 1011.2
20260504000401 60 265 0.0 0.0 0.00 0.00 0.00 60 1011.2
20260504000301 60 265 0.0 0.0 0.00 0.00 0.00 59 1011.2
20260504000104 60 269 0.0 0.0 0.00 0.00 0.00 59 1011.1
20260504000002 60 269 0.0 0.0 0.00 0.00 0.00 59 1011.2
20260503235901 60 269 0.0 0.0 0.00 0.00 0.00 59 1011.1
20260503235804 60 269 0.0 0.0 0.00 0.00 0.00 59 1011.1
20260503235701 60 269 0.0 0.0 0.00 0.00 0.00 58 1011.1
20260503235601 60 269 0.0 0.0 0.00 0.00 0.00 58 1011.1
20260503235501 60 269 0.0 0.0 0.00 0.00 0.00 59 1011.1
20260503235404 60 269 0.0 0.0 0.00 0.00 0.00 59 1011.0
20260503235301 60 163 0.0 0.0 0.00 0.00 0.00 60 1011.0
20260503235201 60 163 0.0 0.0 0.00 0.00 0.00 59 1011.0
20260503235101 61 163 0.0 0.0 0.00 0.00 0.00 60 1011.1
20260503235002 61 163 0.0 0.0 0.00 0.00 0.00 60 1011.1
20260503234900 61 163 0.0 0.0 0.00 0.00 0.00 59 1011.1
20260503234802 61 163 0.0 0.0 0.00 0.00 0.00 59 1011.1
20260503234701 61 163 0.0 0.0 0.00 0.00 0.00 59 1011.1
20260503234604 61 163 0.0 0.0 0.00 0.00 0.00 60 1011.1
20260503234500 61 163 0.0 0.0 0.00 0.00 0.00 58 1011.1
20260503234401 61 163 0.0 0.0 0.00 0.00 0.00 59 1011.2
20260503234301 61 163 0.0 0.0 0.00 0.00 0.00 58 1011.2
20260503234202 61 163 0.0 0.0 0.00 0.00 0.00 59 1011.1
20260503234100 61 163 0.0 0.0 0.00 0.00 0.00 59 1011.2
20260503233900 61 163 0.0 0.0 0.00 0.00 0.00 58 1011.1
20260503233803 61 163 0.0 0.0 0.00 0.00 0.00 58 1011.2
20260503233701 61 168 0.0 0.0 0.00 0.00 0.00 59 1011.3
20260503233602 61 168 0.0 0.0 0.00 0.00 0.00 59 1011.4
20260503233500 61 168 0.0 0.0 0.00 0.00 0.00 58 1011.4
20260503233404 61 168 0.0 0.0 0.00 0.00 0.00 59 1011.4
20260503233302 61 168 0.0 0.0 0.00 0.00 0.00 59 1011.6
20260503233201 61 168 0.0 0.0 0.00 0.00 0.00 59 1011.6
20260503233100 61 168 0.0 0.0 0.00 0.00 0.00 60 1011.8
20260503233004 61 168 0.0 0.0 0.00 0.00 0.00 60 1011.8
20260503232801 61 168 0.0 0.0 0.00 0.00 0.00 59 1011.7
20260503232702 61 168 0.0 0.0 0.00 0.00 0.00 59 1011.7
20260503232604 61 168 0.0 0.0 0.00 0.00 0.00 58 1011.7
20260503232501 61 168 0.0 0.0 0.00 0.00 0.00 58 1011.7
20260503232401 61 168 0.0 0.0 0.00 0.00 0.00 57 1011.6
20260503232301 61 168 0.0 0.0 0.00 0.00 0.00 57 1011.8
20260503232204 61 168 0.0 0.0 0.00 0.00 0.00 58 1011.8
20260503232001 61 230 0.0 0.0 0.00 0.00 0.00 61 1011.7
20260503231804 61 230 0.0 0.0 0.00 0.00 0.00 60 1011.7
20260503231701 61 230 0.0 0.0 0.00 0.00 0.00 60 1011.7
20260503231601 61 230 0.0 0.0 0.00 0.00 0.00 58 1011.7
20260503231500 61 230 0.0 0.0 0.00 0.00 0.00 59 1011.7
20260503231404 61 232 0.0 0.0 0.00 0.00 0.00 60 1011.7
20260503231300 61 232 0.0 0.0 0.00 0.00 0.00 60 1011.6
20260503231201 62 232 0.0 0.0 0.00 0.00 0.00 60 1011.6
20260503231101 62 232 0.0 0.0 0.00 0.00 0.00 61 1011.6
20260503230900 62 232 0.0 0.0 0.00 0.00 0.00 61 1011.4
20260503230801 62 114 0.0 0.0 0.00 0.00 0.00 60 1011.4
20260503230700 62 114 0.0 0.0 0.00 0.00 0.00 60 1011.3
20260503230604 62 114 0.0 0.0 0.00 0.00 0.00 58 1011.3
20260503230501 61 148 0.0 0.0 0.00 0.00 0.00 57 1011.2
20260503230401 61 146 0.0 0.0 0.00 0.00 0.00 56 1011.2
20260503230301 61 151 0.0 0.0 0.00 0.00 0.00 55 1011.1
20260503230204 61 151 0.0 0.0 0.00 0.00 0.00 55 1011.1
20260503230003 62 152 0.0 0.0 0.00 0.00 0.00 56 1011.1
20260503225901 61 152 0.0 0.0 0.00 0.00 0.00 56 1011.1
20260503225803 62 152 0.0 0.0 0.00 0.00 0.00 56 1011.1
20260503225701 61 152 0.0 0.0 0.00 0.00 0.00 55 1011.0
20260503225601 61 78 0.0 0.0 0.00 0.00 0.00 55 1011.0
20260503225501 61 78 0.0 0.0 0.00 0.00 0.00 54 1011.1
20260503225402 62 75 0.0 0.0 0.00 0.00 0.00 55 1011.0
20260503225301 62 75 0.0 0.0 0.00 0.00 0.00 56 1011.0
20260503225201 62 217 0.0 0.0 0.00 0.00 0.00 55 1011.1
20260503225101 62 217 0.0 0.0 0.00 0.00 0.00 56 1011.2
20260503225003 62 217 0.0 0.0 0.00 0.00 0.00 55 1011.2
20260503224800 62 214 0.0 0.0 0.00 0.00 0.00 55 1011.1
20260503224701 62 72 0.0 0.0 0.00 0.00 0.00 57 1011.1
20260503224604 62 329 0.0 0.0 0.00 0.00 0.00 57 1011.2
20260503224501 62 329 0.0 0.0 0.00 0.00 0.00 57 1011.2
20260503224300 62 329 0.0 0.0 0.00 0.00 0.00 58 1011.3
20260503224206 62 329 0.0 0.0 0.00 0.00 0.00 59 1011.2
20260503224101 62 329 0.0 0.0 0.00 0.00 0.00 58 1011.2
20260503224001 62 328 0.0 2.6 0.00 0.00 0.00 56 1011.3
20260503223903 62 328 0.0 2.6 0.00 0.00 0.00 56 1011.3
20260503223800 62 328 0.0 2.6 0.00 0.00 0.00 57 1011.3
20260503223701 62 328 0.0 2.6 0.00 0.00 0.00 57 1011.2
20260503223601 62 328 0.0 2.6 0.00 0.00 0.00 57 1011.3
20260503223505 62 328 0.0 2.6 0.00 0.00 0.00 57 1011.3
20260503223400 62 328 0.0 2.6 0.00 0.00 0.00 55 1011.3
20260503223300 62 103 0.0 2.6 0.00 0.00 0.00 56 1011.3
20260503223203 62 103 0.0 2.6 0.00 0.00 0.00 56 1011.4
20260503223001 62 242 0.0 1.7 0.00 0.00 0.00 56 1011.4
20260503222900 62 242 0.0 1.7 0.00 0.00 0.00 56 1011.4
20260503222803 62 242 0.0 1.7 0.00 0.00 0.00 56 1011.3
20260503222701 62 242 0.0 1.7 0.00 0.00 0.00 55 1011.3
20260503222601 62 213 0.0 3.5 0.00 0.00 0.00 56 1011.4
20260503222500 62 190 0.0 3.5 0.00 0.00 0.00 55 1011.4
20260503222402 62 190 0.0 3.5 0.00 0.00 0.00 57 1011.5
20260503222301 62 69 0.0 3.5 0.00 0.00 0.00 56 1011.5
20260503222200 62 55 0.0 3.5 0.00 0.00 0.00 57 1011.3
20260503222007 62 55 0.0 3.5 0.00 0.00 0.00 56 1011.4
20260503221901 62 57 0.0 3.5 0.00 0.00 0.00 56 1011.3
20260503221801 62 166 0.0 3.5 0.00 0.00 0.00 57 1011.3
20260503221701 62 234 0.0 2.6 0.00 0.00 0.00 56 1011.3
20260503221602 62 234 0.0 2.6 0.00 0.00 0.00 54 1011.3
20260503221501 62 234 0.0 5.2 0.00 0.00 0.00 54 1011.3
20260503221401 62 207 0.0 5.2 0.00 0.00 0.00 56 1011.2
20260503221203 62 188 0.0 5.2 0.00 0.00 0.00 55 1011.3
20260503221100 62 188 0.0 5.2 0.00 0.00 0.00 56 1011.3
20260503221000 62 189 0.0 5.2 0.00 0.00 0.00 55 1011.3
20260503220900 62 192 0.0 5.2 0.00 0.00 0.00 55 1011.4
20260503220802 62 281 0.0 5.2 0.00 0.00 0.00 55 1011.4
20260503220700 62 188 0.0 5.2 0.00 0.00 0.00 53 1011.4
20260503220601 62 267 0.0 2.6 0.00 0.00 0.00 54 1011.4
20260503220500 62 269 0.0 2.6 0.00 0.00 0.00 54 1011.4
20260503220404 62 269 0.0 2.6 0.00 0.00 0.00 55 1011.3
20260503220301 62 150 0.0 2.6 0.00 0.00 0.00 55 1011.4
20260503220005 62 143 0.0 1.7 0.00 0.00 0.00 54 1011.6
20260503215900 62 143 0.0 1.7 0.00 0.00 0.00 54 1011.6
20260503215801 62 185 0.0 1.7 0.00 0.00 0.00 55 1011.6
20260503215703 62 186 0.0 1.7 0.00 0.00 0.00 55 1011.5
20260503215501 62 170 0.0 5.2 0.00 0.00 0.00 55 1011.4
20260503215401 62 170 0.0 7.8 0.00 0.00 0.00 54 1011.4
20260503215304 62 207 0.0 7.8 0.00 0.00 0.00 53 1011.5
20260503215201 62 207 0.0 7.8 0.00 0.00 0.00 53 1011.4
20260503215100 62 200 0.0 7.8 0.00 0.00 0.00 54 1011.4
20260503215003 62 184 0.0 7.8 0.00 0.00 0.00 55 1011.4
20260503214900 62 185 0.0 7.8 0.00 0.00 0.00 56 1011.4
20260503214701 62 148 0.0 7.8 0.00 0.00 0.00 54 1011.6
20260503214603 62 172 0.0 7.8 0.00 0.00 0.00 54 1011.7
20260503214501 62 318 0.0 0.0 0.00 0.00 0.00 54 1011.6
20260503214401 62 318 0.0 0.0 0.00 0.00 0.00 54 1011.5
20260503214300 62 318 0.0 0.0 0.00 0.00 0.00 56 1011.6
20260503214203 62 318 0.0 0.0 0.00 0.00 0.00 54 1011.7
20260503214001 62 317 0.0 0.0 0.00 0.00 0.00 54 1011.6
20260503213900 62 321 0.0 0.0 0.00 0.00 0.00 55 1011.6
20260503213803 62 321 0.0 0.0 0.00 0.00 0.00 55 1011.7
20260503213701 62 321 0.0 0.0 0.00 0.00 0.00 54 1011.6
20260503213601 62 321 0.0 0.0 0.00 0.00 0.00 54 1011.5
20260503213500 62 28 0.0 0.0 0.00 0.00 0.00 55 1011.5
20260503213403 62 288 0.0 5.2 0.00 0.00 0.00 54 1011.5
20260503213300 62 224 0.0 5.2 0.00 0.00 0.00 54 1011.4
20260503213200 62 224 0.0 5.2 0.00 0.00 0.00 56 1011.3
20260503213100 62 224 0.0 5.2 0.00 0.00 0.00 54 1011.4
20260503213004 62 222 0.0 5.2 0.00 0.00 0.00 54 1011.5
20260503212900 62 223 0.0 5.2 0.00 0.00 0.00 54 1011.5
20260503212759 62 223 0.0 5.2 0.00 0.00 0.00 53 1011.6
20260503212701 62 223 0.0 5.2 0.00 0.00 0.00 53 1011.8
20260503212604 62 184 0.0 5.2 0.00 0.00 0.00 54 1011.8
20260503212501 62 107 0.0 3.5 0.00 0.00 0.00 53 1011.8
20260503212401 62 105 0.0 3.5 0.00 0.00 0.00 55 1011.9
20260503212300 62 77 0.0 3.5 0.00 0.00 0.00 54 1011.8
20260503212100 62 153 0.0 3.5 0.00 0.00 0.00 54 1011.9
20260503211901 62 294 0.0 3.5 0.00 0.00 0.00 54 1012.1
20260503211802 62 101 0.0 2.6 0.00 0.00 0.00 53 1012.1
20260503211702 62 80 0.0 2.6 0.00 0.00 0.00 54 1012.0
20260503211501 62 236 0.0 2.6 0.00 0.00 0.00 54 1012.1
20260503211403 62 246 0.0 2.6 0.00 0.00 0.00 54 1012.0
20260503211300 62 168 0.0 2.6 0.00 0.00 0.00 52 1012.0
20260503211201 62 168 0.0 2.6 0.00 0.00 0.00 53 1012.1
20260503211101 62 168 0.0 2.6 0.00 0.00 0.00 55 1012.0
20260503211003 62 150 0.0 2.6 0.00 0.00 0.00 55 1012.0
20260503210901 62 163 0.0 0.9 0.00 0.00 0.00 55 1012.1
20260503210800 62 161 0.0 0.9 0.00 0.00 0.00 55 1012.1
20260503210700 62 194 0.0 0.0 0.00 0.00 0.00 54 1012.1
20260503210602 62 178 0.0 1.7 0.00 0.00 0.00 56 1012.1
20260503210301 62 227 0.0 1.7 0.00 0.00 0.00 53 1012.1
20260503210003 62 227 0.0 1.7 0.00 0.00 0.00 53 1012.1
20260503205800 62 235 0.0 5.2 0.00 0.00 0.00 54 1012.2
20260503205701 62 244 0.0 5.2 0.00 0.00 0.00 55 1012.1
20260503205602 62 118 0.0 5.2 0.00 0.00 0.00 53 1012.3
20260503205504 62 178 0.0 5.2 0.00 0.00 0.00 55 1012.1
20260503205401 62 128 0.0 5.2 0.00 0.00 0.00 55 1012.3
20260503205303 62 229 0.0 5.2 0.00 0.00 0.00 54 1012.3
20260503205200 62 206 0.0 5.2 0.00 0.00 0.00 53 1012.4
20260503205106 62 170 0.0 5.2 0.00 0.00 0.00 54 1012.4
20260503205000 62 168 0.0 6.1 0.00 0.00 0.00 54 1012.6
20260503204900 62 111 0.0 6.1 0.00 0.00 0.00 55 1012.6
20260503204800 62 175 0.0 0.0 0.00 0.00 0.00 55 1012.7
20260503204601 62 157 0.0 0.0 0.00 0.00 0.00 56 1012.8
20260503204501 62 157 0.0 0.0 0.00 0.00 0.00 56 1012.8
20260503204401 62 341 0.0 1.7 0.00 0.00 0.00 56 1012.8
20260503204302 62 341 0.0 2.6 0.00 0.00 0.00 54 1012.9
20260503204001 62 219 0.0 2.6 0.00 0.00 0.00 55 1013.1
20260503203801 62 219 0.0 2.6 0.00 0.00 0.00 55 1013.2
20260503203700 62 219 0.0 2.6 0.00 0.00 0.00 53 1013.2
20260503203601 62 219 0.0 2.6 0.00 0.00 0.00 54 1013.2
20260503203503 62 156 0.0 2.6 0.00 0.00 0.00 56 1013.4
20260503203300 62 254 0.0 0.0 0.00 0.00 0.00 53 1013.4
20260503203200 62 254 0.0 0.0 0.00 0.00 0.00 54 1013.5
20260503203102 62 254 0.0 0.0 0.00 0.00 0.00 54 1013.5
20260503203000 62 254 0.0 0.0 0.00 0.00 0.00 56 1013.5
20260503202900 62 254 0.0 0.0 0.00 0.00 0.00 54 1013.6
20260503202801 62 197 0.0 0.0 0.00 0.00 0.00 55 1013.6
20260503202601 62 197 0.0 0.0 0.00 0.00 0.00 53 1013.7
20260503202500 62 197 0.0 0.0 0.00 0.00 0.00 54 1013.8
20260503202400 62 289 0.0 0.0 0.00 0.00 0.00 54 1013.8
20260503202304 63 289 0.0 0.0 0.00 0.00 0.00 55 1013.7
20260503202100 63 289 0.0 0.9 0.00 0.00 0.00 54 1014.0
20260503201800 63 105 0.0 3.5 0.00 0.00 0.00 52 1014.1
20260503201701 63 105 0.0 3.5 0.00 0.00 0.00 53 1014.1
20260503201601 63 105 0.0 3.5 0.00 0.00 0.00 53 1014.2
20260503201503 63 105 0.0 3.5 0.00 0.00 0.00 53 1014.2
20260503201401 63 105 0.0 3.5 0.00 0.00 0.00 52 1014.0
20260503201301 63 293 0.0 3.5 0.00 0.00 0.00 53 1014.0
20260503201200 63 208 0.0 3.5 0.00 0.00 0.00 54 1014.1
20260503201103 63 322 0.0 2.6 0.00 0.00 0.00 55 1014.2
20260503201001 63 321 0.0 3.5 0.00 0.00 0.00 55 1014.2
20260503200800 63 321 0.0 3.5 0.00 0.00 0.00 54 1014.1
20260503200704 63 321 0.0 3.5 0.00 0.00 0.00 53 1014.0
20260503200601 63 292 0.0 3.5 0.00 0.00 0.00 54 1014.0
20260503200501 63 292 0.0 3.5 0.00 0.00 0.00 55 1014.0
20260503200400 63 292 0.0 3.5 0.00 0.00 0.00 55 1014.0
20260503200303 63 292 0.0 3.5 0.00 0.00 0.00 54 1014.0
20260503200200 63 305 0.0 5.2 0.00 0.00 0.00 56 1013.9
20260503200101 63 333 0.0 8.7 0.00 0.00 0.00 53 1013.9
20260503200003 63 299 0.0 8.7 0.00 0.00 0.00 54 1013.9
20260503195905 63 299 0.0 8.7 0.00 0.00 0.00 53 1013.9
20260503195800 63 299 0.0 8.7 0.00 0.00 0.00 54 1013.9
20260503195700 63 299 0.0 8.7 0.00 0.00 0.00 53 1014.0
20260503195503 63 261 0.9 9.6 0.00 0.00 0.00 52 1013.9
20260503195401 63 273 0.9 9.6 0.00 0.00 0.00 51 1013.9
20260503195300 63 229 0.9 9.6 0.00 0.00 0.00 53 1013.9
20260503195102 63 192 0.0 9.6 0.00 0.00 0.00 50 1013.8
20260503194900 64 186 0.0 9.6 0.00 0.00 0.00 52 1013.8
20260503194800 64 284 0.0 9.6 0.00 0.00 0.00 54 1013.9
20260503194702 64 261 0.0 9.6 0.00 0.00 0.00 53 1013.8
20260503194601 64 135 0.0 9.6 0.00 0.00 0.00 51 1013.8
20260503194500 64 215 0.0 5.2 0.00 0.00 0.00 50 1013.8
20260503194304 64 280 0.0 3.5 0.00 0.00 0.00 52 1013.9
20260503194201 64 5 0.0 0.0 0.00 0.00 0.00 50 1014.0
20260503194101 64 284 0.0 0.0 0.00 0.00 0.00 51 1014.1
20260503194001 64 284 0.0 0.0 0.00 0.00 0.00 51 1014.1
20260503193800 64 286 0.0 6.1 0.00 0.00 0.00 56 1014.0
20260503193701 64 275 0.0 6.1 0.00 0.00 0.00 56 1014.1
20260503193559 63 265 0.0 6.1 0.00 0.00 0.00 54 1014.0
20260503193505 63 265 0.0 6.1 0.00 0.00 0.00 53 1014.0
20260503193402 63 196 0.9 6.1 0.00 0.00 0.00 52 1013.8
20260503193300 63 196 0.9 6.1 0.00 0.00 0.00 52 1014.0
20260503193103 63 214 0.0 8.7 0.00 0.00 0.00 52 1014.1
20260503193001 63 337 0.0 8.7 0.00 0.00 0.00 51 1014.1
20260503192901 63 236 0.0 8.7 0.00 0.00 0.00 53 1014.2
20260503192801 64 264 0.0 8.7 0.00 0.00 0.00 52 1014.1
20260503192703 64 264 0.0 8.7 0.00 0.00 0.00 52 1014.2
20260503192600 64 264 0.0 8.7 0.00 0.00 0.00 53 1014.1
20260503192501 64 262 0.0 8.7 0.00 0.00 0.00 51 1014.1
20260503192305 64 242 0.0 4.3 0.00 0.00 0.00 51 1014.1
20260503192200 64 195 0.0 4.3 0.00 0.00 0.00 52 1014.2
20260503192100 64 276 0.0 4.3 0.00 0.00 0.00 51 1014.1
20260503192001 64 276 0.0 4.3 0.00 0.00 0.00 50 1014.3
20260503191800 64 276 0.0 4.3 0.00 0.00 0.00 52 1014.1
20260503191700 64 150 0.0 2.6 0.00 0.00 0.00 52 1014.3
20260503191601 64 150 0.0 2.6 0.00 0.00 0.00 51 1014.5
20260503191504 64 136 0.0 2.6 0.00 0.00 0.00 51 1014.5
20260503191400 64 132 0.0 2.6 0.00 0.00 0.00 51 1014.6
20260503191301 64 212 0.0 2.6 0.00 0.00 0.00 51 1014.5
20260503191104 64 223 0.0 2.6 0.00 0.00 0.00 53 1014.5
20260503191000 64 279 0.0 2.6 0.00 0.00 0.00 53 1014.7
20260503190900 64 279 0.0 2.6 0.00 0.00 0.00 52 1014.6
20260503190501 63 237 0.0 3.5 0.00 0.00 0.00 50 1014.5
20260503190401 63 130 0.0 3.5 0.00 0.00 0.00 53 1014.5
20260503190303 63 102 0.0 3.5 0.00 0.00 0.00 51 1014.6
20260503190200 63 251 0.0 3.5 0.00 0.00 0.00 50 1014.6
20260503190004 64 250 0.0 3.5 0.00 0.00 0.00 53 1014.7
20260503185902 64 250 0.0 3.5 0.00 0.00 0.00 51 1014.6
20260503185801 64 286 0.0 2.6 0.00 0.00 0.00 50 1014.5
20260503185659 64 262 0.0 1.7 0.00 0.00 0.00 50 1014.8
20260503185504 64 251 0.0 1.7 0.00 0.00 0.00 52 1014.7
20260503185400 64 263 0.0 1.7 0.00 0.00 0.00 53 1014.7
20260503185259 64 263 0.0 1.7 0.00 0.00 0.00 52 1014.7
20260503185201 64 263 0.0 1.7 0.00 0.00 0.00 51 1014.6
20260503185103 64 220 0.0 1.7 0.00 0.00 0.00 51 1014.7
20260503184901 64 271 0.0 1.7 0.00 0.00 0.00 51 1014.8
20260503184801 64 244 0.0 1.7 0.00 0.00 0.00 50 1014.7
20260503184702 64 242 0.0 1.7 0.00 0.00 0.00 50 1014.8
20260503184601 64 256 0.0 0.9 0.00 0.00 0.00 49 1014.8
20260503184500 64 256 0.0 0.9 0.00 0.00 0.00 48 1015.0
20260503184401 64 252 0.0 0.9 0.00 0.00 0.00 50 1015.0
20260503184100 64 210 0.0 2.6 0.00 0.00 0.00 50 1015.2
20260503183959 64 288 0.0 2.6 0.00 0.00 0.00 53 1015.2
20260503183905 64 270 0.0 2.6 0.00 0.00 0.00 52 1015.1
20260503183800 64 257 0.0 2.6 0.00 0.00 0.00 52 1015.2
20260503183701 64 257 0.0 2.6 0.00 0.00 0.00 53 1015.2
20260503183600 64 257 0.0 2.6 0.00 0.00 0.00 52 1015.1
20260503183503 64 257 0.0 3.5 0.00 0.00 0.00 53 1015.1
20260503183300 63 199 0.0 3.5 0.00 0.00 0.00 52 1015.2
20260503183159 63 180 0.0 3.5 0.00 0.00 0.00 50 1015.2
20260503183103 63 251 0.0 3.5 0.00 0.00 0.00 51 1015.2
20260503182959 63 251 0.0 3.5 0.00 0.00 0.00 51 1015.3
20260503182901 64 251 0.0 3.5 0.00 0.00 0.00 52 1015.3
20260503182800 63 277 0.0 3.5 0.00 0.00 0.00 51 1015.3
20260503182501 63 11 0.0 0.0 0.00 0.00 0.00 53 1015.4
20260503182400 63 11 0.0 0.0 0.00 0.00 0.00 51 1015.4
20260503182305 63 12 0.0 6.1 0.00 0.00 0.00 52 1015.5
20260503182100 63 281 0.0 6.1 0.00 0.00 0.00 52 1015.5
20260503181903 63 281 0.0 6.1 0.00 0.00 0.00 52 1015.6
20260503181800 63 281 0.0 6.1 0.00 0.00 0.00 54 1015.6
20260503181700 63 281 0.0 6.1 0.00 0.00 0.00 52 1015.6
20260503181506 63 148 0.0 5.2 0.00 0.00 0.00 51 1015.6
20260503181300 63 169 0.0 1.7 0.00 0.00 0.00 52 1015.8
20260503181201 63 294 0.0 1.7 0.00 0.00 0.00 55 1015.8
20260503181001 63 215 0.0 2.6 0.00 0.00 0.00 51 1015.8
20260503180800 63 211 0.0 2.6 0.00 0.00 0.00 52 1015.8
20260503180703 63 204 0.0 4.3 0.00 0.00 0.00 53 1015.8
20260503180400 63 240 0.0 4.3 0.00 0.00 0.00 55 1015.9
20260503180303 63 309 0.0 4.3 0.00 0.00 0.00 56 1015.9
20260503180200 63 311 0.0 4.3 0.00 0.00 0.00 53 1016.0
20260503180004 63 296 0.0 7.0 0.00 0.00 0.00 53 1016.0
20260503175700 63 256 0.0 7.0 0.00 0.00 0.00 54 1016.0
20260503175601 63 232 0.0 7.0 0.00 0.00 0.00 54 1016.0
20260503175505 63 121 0.0 7.0 0.00 0.00 0.00 55 1015.9
20260503175401 63 217 0.0 7.0 0.00 0.00 0.00 55 1016.0
20260503175201 63 34 0.0 0.0 0.00 0.00 0.00 54 1016.4
20260503175104 63 248 0.0 3.5 0.00 0.00 0.00 53 1016.5
20260503174959 63 226 0.0 3.5 0.00 0.00 0.00 52 1016.4
20260503174900 63 226 0.0 3.5 0.00 0.00 0.00 53 1016.4
20260503174801 63 227 0.0 3.5 0.00 0.00 0.00 54 1016.5
20260503174703 62 190 0.0 5.2 0.00 0.00 0.00 53 1016.5
20260503174601 62 192 0.0 5.2 0.00 0.00 0.00 53 1016.6
20260503174401 62 180 0.0 5.2 0.00 0.00 0.00 54 1016.5
20260503174302 62 180 0.0 5.2 0.00 0.00 0.00 54 1016.5
20260503174201 62 136 0.0 5.2 0.00 0.00 0.00 54 1016.5
20260503174100 62 134 0.0 5.2 0.00 0.00 0.00 56 1016.5
20260503173801 62 269 0.0 5.2 0.00 0.00 0.00 54 1016.5
20260503173659 62 275 0.0 0.9 0.00 0.00 0.00 53 1016.5
20260503173600 62 276 0.0 0.9 0.00 0.00 0.00 55 1016.6
20260503173504 62 286 0.0 0.9 0.00 0.00 0.00 55 1016.6
20260503173301 62 221 0.0 0.9 0.00 0.00 0.00 53 1016.7
20260503173103 62 195 0.0 3.5 0.00 0.00 0.00 52 1016.8
20260503173001 62 207 0.0 3.5 0.00 0.00 0.00 53 1016.8
20260503172704 62 273 0.0 3.5 0.00 0.00 0.00 56 1016.7
20260503172600 61 336 0.0 3.5 0.00 0.00 0.00 54 1016.8
20260503172401 61 39 0.0 3.5 0.00 0.00 0.00 54 1016.8
20260503172306 61 17 0.0 3.5 0.00 0.00 0.00 55 1016.9
20260503172200 61 151 0.0 2.6 0.00 0.00 0.00 54 1016.8
20260503172001 61 238 0.0 2.6 0.00 0.00 0.00 54 1016.8
20260503171800 61 182 0.0 2.6 0.00 0.00 0.00 53 1016.8
20260503171701 61 182 0.0 2.6 0.00 0.00 0.00 53 1016.8
20260503171601 61 257 0.0 2.6 0.00 0.00 0.00 54 1016.8
20260503171503 61 284 0.0 0.9 0.00 0.00 0.00 56 1016.8
20260503171300 61 225 0.0 0.0 0.00 0.00 0.00 51 1016.9
20260503171201 61 225 0.0 0.0 0.00 0.00 0.00 52 1016.7
20260503171102 61 217 0.0 0.0 0.00 0.00 0.00 52 1016.7
20260503171000 61 216 0.0 0.0 0.00 0.00 0.00 52 1016.8
20260503170900 61 173 0.0 0.0 0.00 0.00 0.00 52 1016.8
20260503170800 61 173 0.0 0.0 0.00 0.00 0.00 53 1016.8
20260503170703 61 171 0.0 0.0 0.00 0.00 0.00 53 1016.9
20260503170601 61 171 0.0 0.0 0.00 0.00 0.00 52 1016.8
20260503170500 61 171 0.0 0.9 0.00 0.00 0.00 52 1016.8
20260503170359 61 171 0.0 6.1 0.00 0.00 0.00 52 1016.8
20260503170303 61 169 0.0 6.1 0.00 0.00 0.00 53 1016.8
20260503170200 61 181 0.0 6.1 0.00 0.00 0.00 54 1016.9
20260503160200 58 188 0.0 0.0 0.00 0.00 0.00 57 1017.8
20260503150901 55 302 0.0 0.0 0.00 0.00 0.00 58 1018.3
20260503150600 55 302 0.0 5.2 0.00 0.00 0.00 57 1018.3
20260503150500 55 302 0.0 5.2 0.00 0.00 0.00 58 1018.3
20260503150201 55 298 0.0 5.2 0.00 0.00 0.00 60 1018.4
20260503140300 52 187 0.0 4.3 0.00 0.00 0.00 63 1018.5
20260503131400 46 184 0.0 0.9 0.00 0.00 0.00 79 1018.7
20260503131303 46 184 0.0 0.9 0.00 0.00 0.00 79 1018.6
20260503131200 46 184 0.0 0.9 0.00 0.00 0.00 79 1018.6
20260503131100 45 131 0.0 0.0 0.00 0.00 0.00 79 1018.7
20260503131000 45 131 0.0 0.0 0.00 0.00 0.00 79 1018.6
20260503130904 45 131 0.0 0.0 0.00 0.00 0.00 80 1018.6
20260503130800 45 131 0.0 0.0 0.00 0.00 0.00 79 1018.7
20260503130700 45 131 0.0 0.0 0.00 0.00 0.00 79 1018.7
20260503130600 45 130 0.0 0.0 0.00 0.00 0.00 80 1018.7
20260503130400 45 130 0.0 0.0 0.00 0.00 0.00 80 1018.6
20260503130201 44 130 0.0 0.0 0.00 0.00 0.00 81 1018.6
20260503130103 44 130 0.0 0.0 0.00 0.00 0.00 82 1018.5
20260503110701 34 49 0.0 0.0 0.00 0.00 0.00 93 1018.1
20260503110602 34 49 0.0 0.0 0.00 0.00 0.00 93 1018.1
20260503110403 34 49 0.0 0.0 0.00 0.00 0.00 93 1018.1
20260503110301 34 49 0.0 0.0 0.00 0.00 0.00 93 1018.0
20260503110201 34 49 0.0 0.0 0.00 0.00 0.00 93 1018.1
20260503100201 34 49 0.0 0.0 0.00 0.00 0.00 93 1017.8
20260503090404 34 49 0.0 0.0 0.00 0.00 0.00 92 1017.9
20260503090301 34 49 0.0 0.0 0.00 0.00 0.00 92 1017.9
20260503090201 34 49 0.0 0.0 0.00 0.00 0.00 92 1017.9
20260503081601 34 49 0.0 0.0 0.00 0.00 0.00 92 1017.7
20260503081502 34 49 0.0 0.0 0.00 0.00 0.00 92 1017.8
20260503081303 34 49 0.0 0.0 0.00 0.00 0.00 92 1017.8
20260503081201 34 49 0.0 0.0 0.00 0.00 0.00 92 1017.9
20260503081101 34 49 0.0 0.0 0.00 0.00 0.00 92 1017.9
20260503081001 34 49 0.0 0.0 0.00 0.00 0.00 92 1017.8
20260503080904 34 49 0.0 0.0 0.00 0.00 0.00 92 1017.8
20260503080701 34 49 0.0 0.0 0.00 0.00 0.00 92 1017.8
20260503080601 34 49 0.0 0.0 0.00 0.00 0.00 92 1017.9
20260503080504 35 49 0.0 0.0 0.00 0.00 0.00 92 1017.9
20260503080402 35 49 0.0 0.0 0.00 0.00 0.00 92 1017.9
20260503080302 35 49 0.0 0.0 0.00 0.00 0.00 92 1017.8
20260503080201 35 49 0.0 0.0 0.00 0.00 0.00 92 1017.9
20260503072901 35 49 0.0 0.0 0.00 0.00 0.00 92 1017.8
20260503072801 35 49 0.0 0.0 0.00 0.00 0.00 92 1017.7
20260503072701 35 49 0.0 0.0 0.00 0.00 0.00 92 1017.7
20260503072604 35 49 0.0 0.0 0.00 0.00 0.00 92 1017.7
20260503072501 35 49 0.0 0.0 0.00 0.00 0.00 92 1017.7
20260503072402 35 49 0.0 0.0 0.00 0.00 0.00 92 1017.7
20260503072203 35 49 0.0 0.0 0.00 0.00 0.00 92 1017.8
20260503072101 35 49 0.0 0.0 0.00 0.00 0.00 92 1017.7
20260503072001 35 49 0.0 0.0 0.00 0.00 0.00 92 1017.7
20260503071901 35 49 0.0 0.0 0.00 0.00 0.00 92 1017.7
20260503071803 35 49 0.0 0.0 0.00 0.00 0.00 92 1017.7
20260503071602 35 49 0.0 0.0 0.00 0.00 0.00 92 1017.7
20260503071502 35 49 0.0 0.0 0.00 0.00 0.00 92 1017.8
20260503071405 35 49 0.0 0.0 0.00 0.00 0.00 92 1017.7
20260503071302 35 49 0.0 0.0 0.00 0.00 0.00 92 1017.8
20260503071202 35 49 0.0 0.0 0.00 0.00 0.00 92 1017.8
20260503071101 35 49 0.0 0.0 0.00 0.00 0.00 92 1017.7
20260503071004 35 49 0.0 0.0 0.00 0.00 0.00 92 1017.8
20260503070901 35 49 0.0 0.0 0.00 0.00 0.00 92 1017.8
20260503070801 35 49 0.0 0.0 0.00 0.00 0.00 92 1017.7
20260503070701 35 49 0.0 0.0 0.00 0.00 0.00 92 1017.8
20260503070603 35 49 0.0 0.0 0.00 0.00 0.00 92 1017.8
20260503070501 35 49 0.0 0.0 0.00 0.00 0.00 92 1017.8
20260503070401 35 49 0.0 0.0 0.00 0.00 0.00 92 1017.8
20260503070302 35 49 0.0 0.0 0.00 0.00 0.00 92 1017.8
20260503070204 35 49 0.0 0.0 0.00 0.00 0.00 92 1017.8